EW2748 Weather Reports


Display with metric or nautical units.
time (UTC)temp
F
wind
direction
speed
MPH
gust
MPH
rain 1hr
in
rain 24hr
in
rain mn
in
humidity
%
barometer
mb
20260510150507 68 116 0.0 3.0 0.00 0.00 0.00 90 1018.4
20260510150016 67 131 0.0 3.0 0.00 0.00 0.00 91 1018.4
20260510145508 66 244 0.0 0.0 0.00 0.00 0.00 92 1018.4
20260510145006 66 243 0.0 0.0 0.00 0.00 0.00 93 1018.4
20260510144530 66 243 0.0 0.0 0.00 0.00 0.00 94 1018.4
20260510144010 65 134 0.0 1.0 0.00 0.00 0.00 96 1018.6
20260510143505 64 150 0.0 1.0 0.00 0.00 0.00 96 1018.6
20260510143017 64 265 0.0 1.0 0.00 0.00 0.00 97 1018.8
20260510142504 64 139 0.0 1.0 0.00 0.00 0.00 97 1018.6
20260510142006 64 133 0.0 1.0 0.00 0.00 0.00 97 1018.5
20260510141518 63 156 0.0 1.0 0.00 0.00 0.00 97 1018.5
20260510140504 63 94 0.0 1.0 0.00 0.00 0.00 98 1018.8
20260510140015 63 94 0.0 1.0 0.00 0.00 0.00 97 1018.7
20260510135510 62 117 0.0 0.0 0.00 0.00 0.00 97 1018.7
20260510135006 62 134 0.0 1.0 0.00 0.00 0.00 97 1018.6
20260510134517 62 134 0.0 1.0 0.00 0.00 0.00 97 1018.5
20260510134008 62 135 0.0 1.0 0.00 0.00 0.00 97 1018.4
20260510133509 62 136 0.0 1.0 0.00 0.00 0.00 97 1018.4
20260510133026 62 131 0.0 0.0 0.00 0.00 0.00 97 1018.4
20260510132506 62 130 0.0 0.0 0.00 0.00 0.00 97 1018.3
20260510132005 62 179 0.0 0.0 0.00 0.00 0.00 98 1018.4
20260510131518 62 134 0.0 1.0 0.00 0.00 0.00 98 1018.2
20260510131007 62 137 0.0 1.0 0.00 0.00 0.00 98 1018.2
20260510130506 62 137 0.0 1.0 0.00 0.00 0.00 97 1018.2
20260510130016 62 136 0.0 0.0 0.00 0.00 0.00 97 1018.1
20260510124509 61 153 0.0 0.0 0.00 0.00 0.00 98 1017.8
20260510123020 61 153 0.0 2.0 0.00 0.00 0.00 97 1017.6
20260510122505 61 136 0.0 2.0 0.00 0.00 0.00 98 1017.5
20260510122008 61 132 0.0 2.0 0.00 0.00 0.00 97 1017.5
20260510121517 61 84 0.0 1.0 0.00 0.00 0.00 97 1017.5
20260510121005 61 115 0.0 0.0 0.00 0.00 0.00 98 1017.6
20260510120509 61 147 0.0 0.0 0.00 0.00 0.00 98 1017.6
20260510120018 61 147 0.0 0.0 0.00 0.00 0.00 98 1017.5
20260510115507 61 147 0.0 0.0 0.00 0.00 0.00 98 1017.3
20260510114518 60 147 0.0 3.0 0.00 0.00 0.00 98 1017.2
20260510114009 60 91 0.0 3.0 0.00 0.00 0.00 98 1017.2
20260510113017 60 88 0.0 0.0 0.00 0.00 0.00 98 1017.0
20260510111514 59 88 0.0 0.0 0.00 0.00 0.00 98 1016.7
20260510111007 59 88 0.0 0.0 0.00 0.00 0.00 98 1016.7
20260510110506 59 88 0.0 0.0 0.00 0.00 0.00 98 1016.8
20260510105507 59 88 0.0 0.0 0.00 0.00 0.00 97 1016.5
20260510105008 59 88 0.0 0.0 0.00 0.00 0.00 97 1016.5
20260510104510 58 88 0.0 0.0 0.00 0.00 0.00 97 1016.3
20260510104006 58 88 0.0 0.0 0.00 0.00 0.00 97 1016.2
20260510103506 58 88 0.0 0.0 0.00 0.00 0.00 97 1016.2
20260510103020 58 88 0.0 0.0 0.00 0.00 0.00 97 1016.1
20260510102504 58 88 0.0 0.0 0.00 0.00 0.00 97 1016.1
20260510102011 58 88 0.0 0.0 0.00 0.00 0.00 97 1016.1
20260510101003 58 146 0.0 0.0 0.00 0.00 0.00 97 1016.0
20260510100505 58 147 0.0 0.0 0.00 0.00 0.00 97 1016.1
20260510100021 57 147 0.0 0.0 0.00 0.00 0.00 97 1016.0
20260510095507 57 147 0.0 0.0 0.00 0.00 0.00 97 1015.9
20260510095003 57 147 0.0 0.0 0.00 0.00 0.00 97 1015.9
20260510094518 56 147 0.0 0.0 0.00 0.00 0.00 97 1015.9
20260510093504 56 147 0.0 0.0 0.00 0.00 0.00 97 1015.8
20260510093015 56 147 0.0 0.0 0.00 0.00 0.00 96 1015.8
20260510092506 56 147 0.0 0.0 0.00 0.00 0.00 96 1015.8
20260510090507 56 146 0.0 0.0 0.00 0.00 0.00 96 1015.9
20260510090022 57 147 0.0 0.0 0.00 0.00 0.00 96 1015.9
20260510085504 57 147 0.0 0.0 0.00 0.00 0.00 96 1015.8
20260510084525 57 146 0.0 0.0 0.00 0.00 0.00 96 1015.7
20260510084003 57 147 0.0 0.0 0.00 0.00 0.00 96 1015.6
20260510083510 57 146 0.0 0.0 0.00 0.00 0.00 96 1015.4
20260510082506 57 147 0.0 0.0 0.00 0.00 0.00 96 1015.3
20260510082004 57 147 0.0 0.0 0.00 0.00 0.00 96 1015.2
20260510081535 57 147 0.0 0.0 0.00 0.00 0.00 96 1015.2
20260510080504 57 147 0.0 0.0 0.00 0.00 0.00 96 1014.9
20260510080013 58 146 0.0 0.0 0.00 0.00 0.00 96 1014.9
20260510075508 58 147 0.0 0.0 0.00 0.00 0.00 96 1014.9
20260510075008 58 147 0.0 0.0 0.00 0.00 0.00 96 1014.8
20260510074511 58 146 0.0 0.0 0.00 0.00 0.00 96 1014.7
20260510074012 58 147 0.0 0.0 0.00 0.00 0.00 96 1014.7
20260510073513 58 147 0.0 0.0 0.00 0.00 0.00 96 1014.6
20260510073024 58 147 0.0 0.0 0.00 0.00 0.00 96 1014.7
20260510072508 58 147 0.0 0.0 0.00 0.00 0.00 96 1014.7
20260510072010 58 147 0.0 0.0 0.00 0.00 0.00 96 1014.7
20260510071523 58 147 0.0 0.0 0.00 0.00 0.00 96 1014.7
20260510071003 59 144 0.0 0.0 0.00 0.00 0.00 96 1014.7
20260510070506 59 144 0.0 0.0 0.00 0.00 0.00 96 1014.8
20260510070026 59 144 0.0 0.0 0.00 0.00 0.00 96 1014.7
20260510065507 59 144 0.0 0.0 0.00 0.00 0.00 96 1014.7
20260510064525 59 144 0.0 0.0 0.00 0.00 0.00 96 1014.6
20260510064008 59 144 0.0 0.0 0.00 0.00 0.00 96 1014.7
20260510063504 59 143 0.0 0.0 0.00 0.00 0.00 95 1014.7
20260510063025 59 143 0.0 0.0 0.00 0.00 0.00 95 1014.7
20260510062512 59 143 0.0 0.0 0.00 0.00 0.00 95 1014.8
20260510062015 60 143 0.0 0.0 0.00 0.00 0.00 95 1014.8
20260510061514 60 143 0.0 0.0 0.00 0.00 0.00 95 1014.9
20260510061008 60 143 0.0 0.0 0.00 0.00 0.00 95 1014.8
20260510060509 60 143 0.0 0.0 0.00 0.00 0.00 95 1014.9
20260510060035 60 143 0.0 0.0 0.00 0.00 0.00 95 1014.9
20260510055504 60 143 0.0 0.0 0.00 0.00 0.00 95 1014.9
20260510055007 60 143 0.0 0.0 0.00 0.00 0.00 95 1015.0
20260510054527 60 143 0.0 0.0 0.00 0.00 0.00 95 1014.9
20260510054009 60 143 0.0 0.0 0.00 0.00 0.00 95 1015.0
20260510053508 60 143 0.0 0.0 0.00 0.00 0.00 95 1015.0
20260510053037 60 143 0.0 0.0 0.00 0.00 0.00 95 1015.0
20260510052512 60 143 0.0 0.0 0.00 0.00 0.00 95 1015.0
20260510052012 61 143 0.0 0.0 0.00 0.00 0.00 94 1015.0
20260510051525 61 143 0.0 0.0 0.00 0.00 0.00 94 1014.9
20260510051008 61 143 0.0 0.0 0.00 0.00 0.00 94 1014.9
20260510050504 61 143 0.0 0.0 0.00 0.00 0.00 94 1014.9
20260510050022 61 143 0.0 0.0 0.00 0.00 0.00 94 1014.8
20260510045509 61 143 0.0 0.0 0.00 0.00 0.00 94 1014.8
20260510045011 61 143 0.0 0.0 0.00 0.00 0.00 93 1014.9
20260510044533 61 143 0.0 0.0 0.00 0.00 0.00 93 1014.9
20260510044009 61 143 0.0 0.0 0.00 0.00 0.00 93 1014.9
20260510043510 62 143 0.0 0.0 0.00 0.00 0.00 93 1015.0
20260510043013 62 143 0.0 0.0 0.00 0.00 0.00 93 1015.0
20260510042008 62 143 0.0 0.0 0.00 0.00 0.00 92 1015.0
20260510041525 62 143 0.0 0.0 0.00 0.00 0.00 92 1015.0
20260510041007 63 143 0.0 0.0 0.00 0.00 0.00 92 1015.1
20260510040514 63 143 0.0 0.0 0.00 0.00 0.00 92 1015.0
20260510040036 63 143 0.0 0.0 0.00 0.00 0.00 91 1015.1
20260510035513 63 143 0.0 0.0 0.00 0.00 0.00 91 1014.9
20260510035008 63 143 0.0 0.0 0.00 0.00 0.00 91 1015.0
20260510034525 64 143 0.0 0.0 0.00 0.00 0.00 90 1015.0
20260510034011 64 143 0.0 0.0 0.00 0.00 0.00 90 1015.0
20260510033506 64 143 0.0 0.0 0.00 0.00 0.00 89 1015.0
20260510033034 64 143 0.0 0.0 0.00 0.00 0.00 89 1015.1
20260510032510 65 143 0.0 0.0 0.00 0.00 0.00 88 1015.0
20260510032013 65 143 0.0 0.0 0.00 0.00 0.00 88 1015.0
20260510031518 65 143 0.0 0.0 0.00 0.00 0.00 87 1015.0
20260510031009 65 143 0.0 0.0 0.00 0.00 0.00 87 1014.9
20260510030515 66 143 0.0 0.0 0.00 0.00 0.00 87 1014.8
20260510030017 66 143 0.0 0.0 0.00 0.00 0.00 87 1014.8
20260510025510 66 130 0.0 0.0 0.00 0.00 0.00 87 1014.8
20260510025011 66 130 0.0 0.0 0.00 0.00 0.00 86 1014.6
20260510024527 66 130 0.0 0.0 0.00 0.00 0.00 85 1014.6
20260510024006 67 130 0.0 0.0 0.00 0.00 0.00 85 1014.6
20260510023511 67 130 0.0 0.0 0.00 0.00 0.00 85 1014.5
20260510023026 67 130 0.0 1.0 0.00 0.00 0.00 85 1014.5
20260510022513 67 130 0.0 1.0 0.00 0.00 0.00 84 1014.4
20260510022008 67 157 0.0 1.0 0.00 0.00 0.00 84 1014.4
20260510021526 67 157 0.0 1.0 0.00 0.00 0.00 83 1014.2
20260510021008 67 147 0.0 0.0 0.00 0.00 0.00 83 1014.2
20260510020027 68 147 0.0 0.0 0.00 0.00 0.00 81 1013.9
20260510015512 68 157 0.0 0.0 0.00 0.00 0.00 81 1013.8
20260510015015 69 157 0.0 0.0 0.00 0.00 0.00 81 1013.7
20260510014526 69 137 0.0 0.0 0.00 0.00 0.00 80 1013.6
20260510014008 69 113 0.0 1.0 0.00 0.00 0.00 80 1013.5
20260510013512 69 150 0.0 1.0 0.00 0.00 0.00 79 1013.5
20260510013016 69 141 0.0 1.0 0.00 0.00 0.00 79 1013.5
20260510012507 69 144 0.0 2.0 0.00 0.00 0.00 78 1013.3
20260510012010 70 136 0.0 3.0 0.00 0.00 0.00 78 1013.3
20260510011527 70 127 1.0 3.0 0.00 0.00 0.00 77 1013.2
20260510010507 70 147 0.0 2.0 0.00 0.00 0.00 76 1013.2
20260510010028 70 152 0.0 0.0 0.00 0.00 0.00 76 1013.1
20260510005507 70 141 0.0 1.0 0.00 0.00 0.00 75 1013.0
20260510005008 71 152 0.0 1.0 0.00 0.00 0.00 75 1013.0
20260510004523 71 139 0.0 1.0 0.00 0.00 0.00 74 1013.0
20260510004013 71 159 0.0 2.0 0.00 0.00 0.00 74 1012.9
20260510003507 71 159 0.0 3.0 0.00 0.00 0.00 73 1012.7
20260510002512 72 140 0.0 2.0 0.00 0.00 0.00 73 1012.5
20260510002005 72 129 0.0 2.0 0.00 0.00 0.00 72 1012.5
20260510001504 72 140 0.0 2.0 0.00 0.00 0.00 73 1012.5
20260510001004 72 143 0.0 2.0 0.00 0.00 0.00 73 1012.4
20260510000020 72 115 0.0 0.0 0.00 0.00 0.00 73 1012.4
20260509235504 72 109 0.0 0.0 0.00 0.00 0.00 72 1012.4
20260509235005 72 138 0.0 0.0 0.00 0.00 0.00 71 1012.3
20260509234529 72 138 0.0 0.0 0.00 0.00 0.00 70 1012.4
20260509233503 73 138 0.0 0.0 0.00 0.00 0.00 68 1012.1
20260509233015 73 138 0.0 0.0 0.00 0.00 0.00 68 1012.0
20260509232509 73 138 0.0 0.0 0.00 0.00 0.00 68 1012.2
20260509232004 73 138 0.0 0.0 0.00 0.00 0.00 67 1012.3
20260509231513 73 138 0.0 0.0 0.00 0.00 0.00 68 1012.3
20260509231006 73 138 0.0 0.0 0.00 0.00 0.00 67 1012.3
20260509230505 73 138 0.0 0.0 0.00 0.00 0.00 66 1012.3
20260509230017 74 138 0.0 0.0 0.00 0.00 0.00 65 1012.1
20260509225006 74 134 0.0 0.0 0.00 0.00 0.00 64 1012.1
20260509224504 74 285 0.0 0.0 0.00 0.00 0.00 66 1012.1
20260509224003 74 285 0.0 0.0 0.00 0.00 0.00 63 1012.0
20260509223504 74 285 0.0 0.0 0.00 0.00 0.00 65 1012.1
20260509222504 74 285 0.0 0.0 0.00 0.00 0.00 63 1011.8
20260509222007 74 284 0.0 0.0 0.00 0.00 0.00 66 1011.9
20260509221520 74 285 0.0 0.0 0.00 0.00 0.00 64 1011.8
20260509221008 74 285 0.0 0.0 0.00 0.00 0.00 67 1011.8
20260509220016 74 285 0.0 0.0 0.00 0.00 0.00 65 1011.8
20260509215510 74 285 0.0 0.0 0.00 0.00 0.00 66 1011.8
20260509215004 74 285 0.0 1.0 0.00 0.00 0.00 62 1011.8
20260509214008 74 306 0.0 2.0 0.00 0.00 0.00 63 1011.7
20260509213508 74 316 0.0 3.0 0.00 0.00 0.00 64 1011.7
20260509213008 75 215 0.0 3.0 0.00 0.00 0.00 64 1011.7
20260509212506 75 283 0.0 2.0 0.00 0.00 0.00 64 1011.7
20260509211508 75 281 0.0 3.0 0.00 0.00 0.00 63 1011.7
20260509211005 75 262 0.0 1.0 0.00 0.00 0.00 64 1011.6
20260509210510 75 308 0.0 3.0 0.00 0.00 0.00 64 1011.7
20260509210026 74 3 0.0 3.0 0.00 0.00 0.00 63 1011.7
20260509205505 74 337 0.0 1.0 0.00 0.00 0.00 65 1011.7
20260509205005 74 288 0.0 2.0 0.00 0.00 0.00 64 1011.8
20260509204520 75 265 0.0 2.0 0.00 0.00 0.00 63 1011.9
20260509204004 75 111 0.0 2.0 0.00 0.00 0.00 64 1011.9
20260509203503 75 35 0.0 2.0 0.00 0.00 0.00 63 1012.0
20260509203019 75 115 0.0 3.0 0.00 0.00 0.00 62 1012.0
20260509202508 75 328 0.0 3.0 0.00 0.00 0.00 64 1012.0
20260509202005 75 322 1.0 3.0 0.00 0.00 0.00 63 1012.1
20260509201515 75 48 0.0 5.0 0.00 0.00 0.00 63 1012.2
20260509201007 75 272 1.0 5.0 0.00 0.00 0.00 63 1012.1
20260509200011 74 349 0.0 3.0 0.00 0.00 0.00 65 1012.1
20260509195508 74 311 0.0 5.0 0.00 0.00 0.00 67 1012.1
20260509195008 74 327 1.0 5.0 0.00 0.00 0.00 65 1012.1
20260509194511 74 288 0.0 3.0 0.00 0.00 0.00 64 1012.1
20260509194007 74 282 0.0 2.0 0.00 0.00 0.00 66 1012.1
20260509193513 74 302 0.0 3.0 0.00 0.00 0.00 66 1012.3
20260509193033 74 286 1.0 3.0 0.00 0.00 0.00 65 1012.1
20260509192505 75 269 0.0 2.0 0.00 0.00 0.00 65 1012.1
20260509192005 75 354 0.0 3.0 0.00 0.00 0.00 64 1012.2
20260509191520 75 316 0.0 3.0 0.00 0.00 0.00 63 1012.4
20260509191004 75 290 0.0 3.0 0.00 0.00 0.00 66 1012.4
20260509190503 75 240 0.0 3.0 0.00 0.00 0.00 65 1012.4
20260509185004 74 293 0.0 3.0 0.00 0.00 0.00 67 1012.6
20260509184520 73 304 0.0 3.0 0.00 0.00 0.00 68 1012.7
20260509184006 73 39 0.0 2.0 0.00 0.00 0.00 66 1012.9
20260509183509 73 302 0.0 1.0 0.00 0.00 0.00 68 1012.9
20260509183014 73 259 0.0 2.0 0.00 0.00 0.00 68 1012.9
20260509182506 73 259 0.0 3.0 0.00 0.00 0.00 69 1013.0
20260509182008 73 25 0.0 5.0 0.00 0.00 0.00 67 1013.2
20260509181515 73 30 0.0 5.0 0.00 0.00 0.00 69 1013.2
20260509181010 72 25 1.0 5.0 0.00 0.00 0.00 67 1013.0
20260509180508 72 88 0.0 4.0 0.00 0.00 0.00 67 1013.1
20260509180028 72 21 0.0 4.0 0.00 0.00 0.00 68 1012.9
20260509175506 72 290 1.0 5.0 0.00 0.00 0.00 70 1012.9
20260509175009 71 291 1.0 5.0 0.00 0.00 0.00 69 1012.9
20260509174003 71 265 0.0 2.0 0.00 0.00 0.00 71 1012.9
20260509173506 70 229 0.0 2.0 0.00 0.00 0.00 72 1012.9
20260509173022 70 257 0.0 3.0 0.00 0.00 0.00 72 1012.8
20260509172507 70 295 2.0 4.0 0.00 0.00 0.00 70 1012.8
20260509172004 70 357 2.0 4.0 0.00 0.00 0.00 72 1012.9
20260509171535 70 132 1.0 4.0 0.00 0.00 0.00 71 1013.0
20260509171008 70 153 1.0 3.0 0.00 0.00 0.00 71 1013.1
20260509170509 70 94 0.0 3.0 0.00 0.00 0.00 72 1013.1
20260509170019 69 80 1.0 4.0 0.00 0.00 0.00 73 1013.4
20260509165507 68 72 0.0 4.0 0.00 0.00 0.00 75 1013.4
20260509165011 68 153 0.0 5.0 0.00 0.00 0.00 74 1013.5
20260509164516 68 84 1.0 5.0 0.00 0.00 0.00 75 1013.5
20260509164011 67 72 1.0 5.0 0.00 0.00 0.00 76 1013.6
20260509163508 67 104 0.0 2.0 0.00 0.00 0.00 76 1013.6
20260509162507 67 134 0.0 4.0 0.00 0.00 0.00 77 1013.6
20260509162008 66 124 1.0 4.0 0.00 0.00 0.00 78 1013.6
20260509161529 66 129 0.0 4.0 0.00 0.00 0.00 79 1013.6
20260509161004 66 117 1.0 4.0 0.00 0.00 0.00 78 1013.6
20260509160022 66 136 0.0 4.0 0.00 0.00 0.00 80 1013.7
20260509155509 66 111 2.0 4.0 0.00 0.00 0.00 79 1013.6
20260509155010 66 112 2.0 4.0 0.00 0.00 0.00 80 1013.5
20260509154008 64 97 0.0 2.0 0.00 0.00 0.00 81 1013.4
20260509153503 64 98 0.0 3.0 0.00 0.00 0.00 81 1013.5
20260509153021 64 136 0.0 4.0 0.00 0.00 0.00 81 1013.4
20260509152508 64 140 1.0 4.0 0.00 0.00 0.00 82 1013.5
20260509151518 64 162 0.0 2.0 0.00 0.00 0.00 83 1013.5